| time (UTC) | temp F | wind direction | speed knots | gust knots | rain 1hr in | rain 24hr in | rain mn in | humidity % | barometer mb |
| 20260505101018 | 56 | 0 | 0.0 | 0.0 | 0.00 | 0.00 | 0.00 | 88 | 1014.3 |
| 20260505100517 | 56 | 0 | 0.0 | 0.0 | 0.00 | 0.00 | 0.00 | 87 | 1014.4 |
| 20260505100018 | 56 | 0 | 0.0 | 0.0 | 0.00 | 0.00 | 0.00 | 87 | 1014.3 |
| 20260505095518 | 56 | 0 | 0.0 | 0.0 | 0.00 | 0.00 | 0.00 | 87 | 1014.3 |
| 20260505095017 | 56 | 0 | 0.0 | 0.0 | 0.00 | 0.00 | 0.00 | 86 | 1014.4 |
| 20260505094517 | 56 | 0 | 0.0 | 0.0 | 0.00 | 0.00 | 0.00 | 86 | 1014.4 |
| 20260505094017 | 57 | 0 | 0.0 | 0.0 | 0.00 | 0.00 | 0.00 | 86 | 1014.5 |
| 20260505093517 | 57 | 0 | 0.0 | 0.0 | 0.00 | 0.00 | 0.00 | 86 | 1014.5 |
| 20260505093017 | 57 | 0 | 0.0 | 0.0 | 0.00 | 0.00 | 0.00 | 85 | 1014.5 |
| 20260505092518 | 57 | 0 | 0.0 | 0.0 | 0.00 | 0.00 | 0.00 | 85 | 1014.4 |
| 20260505092018 | 57 | 0 | 0.0 | 0.0 | 0.00 | 0.00 | 0.00 | 85 | 1014.4 |
| 20260505091518 | 57 | 0 | 0.0 | 0.0 | 0.00 | 0.00 | 0.00 | 84 | 1014.6 |
| 20260505091017 | 58 | 0 | 0.0 | 0.0 | 0.00 | 0.00 | 0.00 | 84 | 1014.6 |
| 20260505090518 | 58 | 0 | 0.0 | 0.0 | 0.00 | 0.00 | 0.00 | 83 | 1014.6 |
| 20260505090017 | 58 | 0 | 0.0 | 0.0 | 0.00 | 0.00 | 0.00 | 83 | 1014.6 |
| 20260505085518 | 58 | 0 | 0.0 | 0.0 | 0.00 | 0.00 | 0.00 | 83 | 1014.7 |
| 20260505085017 | 58 | 0 | 0.0 | 0.0 | 0.00 | 0.00 | 0.00 | 82 | 1014.7 |
| 20260505084517 | 58 | 0 | 0.0 | 0.0 | 0.00 | 0.00 | 0.00 | 82 | 1014.6 |
| 20260505084017 | 58 | 0 | 0.0 | 0.0 | 0.00 | 0.00 | 0.00 | 82 | 1014.6 |
| 20260505083518 | 59 | 0 | 0.0 | 0.0 | 0.00 | 0.00 | 0.00 | 81 | 1014.6 |
| 20260505083018 | 59 | 0 | 0.0 | 0.0 | 0.00 | 0.00 | 0.00 | 81 | 1014.7 |
| 20260505082517 | 59 | 0 | 0.0 | 0.0 | 0.00 | 0.00 | 0.00 | 81 | 1014.8 |
| 20260505082017 | 59 | 0 | 0.0 | 0.0 | 0.00 | 0.00 | 0.00 | 80 | 1014.9 |
| 20260505081517 | 59 | 0 | 0.0 | 0.0 | 0.00 | 0.00 | 0.00 | 80 | 1014.9 |
| 20260505081018 | 59 | 0 | 0.0 | 0.0 | 0.00 | 0.00 | 0.00 | 79 | 1014.9 |
| 20260505080517 | 59 | 0 | 0.0 | 0.0 | 0.00 | 0.00 | 0.00 | 79 | 1014.9 |
| 20260505080018 | 59 | 0 | 0.0 | 0.0 | 0.00 | 0.00 | 0.00 | 79 | 1014.8 |
| 20260505075518 | 59 | 0 | 0.0 | 0.0 | 0.00 | 0.00 | 0.00 | 78 | 1014.9 |
| 20260505075017 | 59 | 0 | 0.0 | 0.0 | 0.00 | 0.00 | 0.00 | 78 | 1014.9 |
| 20260505074517 | 59 | 0 | 0.0 | 0.0 | 0.00 | 0.00 | 0.00 | 78 | 1015.0 |
| 20260505074017 | 59 | 0 | 0.0 | 0.0 | 0.00 | 0.00 | 0.00 | 78 | 1015.1 |
| 20260505073517 | 59 | 0 | 0.0 | 0.0 | 0.00 | 0.00 | 0.00 | 78 | 1015.2 |
| 20260505073018 | 59 | 0 | 0.0 | 0.0 | 0.00 | 0.00 | 0.00 | 78 | 1015.1 |
| 20260505072518 | 59 | 0 | 0.0 | 0.0 | 0.00 | 0.00 | 0.00 | 78 | 1015.0 |
| 20260505072017 | 59 | 0 | 0.0 | 0.0 | 0.00 | 0.00 | 0.00 | 78 | 1014.9 |
| 20260505071517 | 59 | 0 | 0.0 | 0.0 | 0.00 | 0.00 | 0.00 | 78 | 1014.9 |
| 20260505071018 | 59 | 281 | 0.0 | 1.7 | 0.00 | 0.00 | 0.00 | 78 | 1014.9 |
| 20260505070517 | 59 | 256 | 0.9 | 2.6 | 0.00 | 0.00 | 0.00 | 78 | 1014.8 |
| 20260505070017 | 59 | 227 | 0.0 | 1.7 | 0.00 | 0.00 | 0.00 | 78 | 1014.9 |
| 20260505065517 | 59 | 200 | 0.0 | 1.7 | 0.00 | 0.00 | 0.00 | 78 | 1014.9 |
| 20260505065017 | 59 | 251 | 0.0 | 1.7 | 0.00 | 0.00 | 0.00 | 78 | 1014.9 |
| 20260505064517 | 59 | 0 | 0.0 | 0.0 | 0.00 | 0.00 | 0.00 | 78 | 1014.9 |
| 20260505064017 | 59 | 0 | 0.0 | 0.0 | 0.00 | 0.00 | 0.00 | 77 | 1014.9 |
| 20260505063517 | 59 | 0 | 0.0 | 0.0 | 0.00 | 0.00 | 0.00 | 76 | 1015.0 |
| 20260505063017 | 59 | 0 | 0.0 | 0.0 | 0.00 | 0.00 | 0.00 | 76 | 1014.9 |
| 20260505062517 | 59 | 0 | 0.0 | 0.0 | 0.00 | 0.00 | 0.00 | 76 | 1015.0 |
| 20260505062018 | 59 | 0 | 0.0 | 0.0 | 0.00 | 0.00 | 0.00 | 75 | 1015.0 |
| 20260505061517 | 59 | 0 | 0.0 | 0.0 | 0.00 | 0.00 | 0.00 | 75 | 1015.0 |
| 20260505061017 | 60 | 0 | 0.0 | 0.0 | 0.00 | 0.00 | 0.00 | 75 | 1015.0 |
| 20260505060517 | 59 | 0 | 0.0 | 0.0 | 0.00 | 0.00 | 0.00 | 76 | 1015.1 |
| 20260505060017 | 60 | 0 | 0.0 | 0.0 | 0.00 | 0.00 | 0.00 | 76 | 1015.2 |
| 20260505055518 | 60 | 0 | 0.0 | 0.0 | 0.00 | 0.00 | 0.00 | 75 | 1015.2 |
| 20260505055017 | 60 | 313 | 0.0 | 0.9 | 0.00 | 0.00 | 0.00 | 75 | 1015.2 |
| 20260505054517 | 60 | 0 | 0.0 | 0.0 | 0.00 | 0.00 | 0.00 | 74 | 1015.1 |
| 20260505054017 | 60 | 0 | 0.0 | 0.0 | 0.00 | 0.00 | 0.00 | 74 | 1015.2 |
| 20260505053517 | 60 | 0 | 0.0 | 0.0 | 0.00 | 0.00 | 0.00 | 74 | 1015.1 |
| 20260505053017 | 60 | 0 | 0.0 | 0.0 | 0.00 | 0.00 | 0.00 | 73 | 1014.9 |
| 20260505052518 | 60 | 0 | 0.0 | 0.0 | 0.00 | 0.00 | 0.00 | 73 | 1015.0 |
| 20260505052017 | 61 | 0 | 0.0 | 0.0 | 0.00 | 0.00 | 0.00 | 73 | 1015.0 |
| 20260505051517 | 61 | 0 | 0.0 | 0.0 | 0.00 | 0.00 | 0.00 | 72 | 1014.9 |
| 20260505051018 | 61 | 263 | 0.0 | 2.6 | 0.00 | 0.00 | 0.00 | 72 | 1014.8 |
| 20260505050518 | 61 | 0 | 0.0 | 0.0 | 0.00 | 0.00 | 0.00 | 72 | 1014.7 |
| 20260505041518 | 62 | 0 | 0.0 | 0.0 | 0.00 | 0.00 | 0.00 | 70 | 1014.7 |
| 20260505041017 | 62 | 0 | 0.0 | 0.0 | 0.00 | 0.00 | 0.00 | 70 | 1014.8 |
| 20260505040517 | 62 | 0 | 0.0 | 0.0 | 0.00 | 0.00 | 0.00 | 70 | 1014.8 |
| 20260505040016 | 62 | 0 | 0.0 | 0.0 | 0.00 | 0.00 | 0.00 | 69 | 1014.8 |
| 20260505035517 | 62 | 0 | 0.0 | 0.0 | 0.00 | 0.00 | 0.00 | 69 | 1014.8 |
| 20260505035017 | 62 | 0 | 0.0 | 0.0 | 0.00 | 0.00 | 0.00 | 69 | 1014.8 |
| 20260505034517 | 62 | 0 | 0.0 | 0.0 | 0.00 | 0.00 | 0.00 | 69 | 1014.8 |
| 20260505034017 | 62 | 0 | 0.0 | 0.0 | 0.00 | 0.00 | 0.00 | 68 | 1014.8 |
| 20260505033517 | 62 | 0 | 0.0 | 0.0 | 0.00 | 0.00 | 0.00 | 68 | 1014.8 |
| 20260505033018 | 63 | 0 | 0.0 | 0.0 | 0.00 | 0.00 | 0.00 | 67 | 1014.8 |
| 20260505032517 | 63 | 0 | 0.0 | 0.0 | 0.00 | 0.00 | 0.00 | 67 | 1014.8 |
| 20260505032023 | 63 | 0 | 0.0 | 0.0 | 0.00 | 0.00 | 0.00 | 66 | 1014.7 |
| 20260505031517 | 63 | 0 | 0.0 | 0.0 | 0.00 | 0.00 | 0.00 | 66 | 1014.7 |
| 20260505031017 | 63 | 0 | 0.0 | 0.0 | 0.00 | 0.00 | 0.00 | 66 | 1014.6 |
| 20260505030517 | 63 | 0 | 0.0 | 0.0 | 0.00 | 0.00 | 0.00 | 65 | 1014.6 |
| 20260505030018 | 64 | 0 | 0.0 | 0.0 | 0.00 | 0.00 | 0.00 | 65 | 1014.6 |
| 20260505025517 | 64 | 0 | 0.0 | 0.0 | 0.00 | 0.00 | 0.00 | 65 | 1014.6 |
| 20260505025017 | 64 | 0 | 0.0 | 0.0 | 0.00 | 0.00 | 0.00 | 65 | 1014.7 |
| 20260505024517 | 64 | 0 | 0.0 | 0.0 | 0.00 | 0.00 | 0.00 | 64 | 1014.7 |
| 20260505024018 | 64 | 0 | 0.0 | 0.0 | 0.00 | 0.00 | 0.00 | 63 | 1014.7 |
| 20260505023517 | 65 | 0 | 0.0 | 0.0 | 0.00 | 0.00 | 0.00 | 63 | 1014.7 |
| 20260505023017 | 65 | 0 | 0.0 | 0.0 | 0.00 | 0.00 | 0.00 | 62 | 1014.7 |
| 20260505022517 | 65 | 0 | 0.0 | 0.0 | 0.00 | 0.00 | 0.00 | 62 | 1014.7 |
| 20260505022017 | 65 | 0 | 0.0 | 0.0 | 0.00 | 0.00 | 0.00 | 60 | 1014.6 |
| 20260505021518 | 66 | 0 | 0.0 | 0.0 | 0.00 | 0.00 | 0.00 | 59 | 1014.6 |
| 20260505021017 | 66 | 0 | 0.0 | 0.0 | 0.00 | 0.00 | 0.00 | 58 | 1014.6 |
| 20260505020517 | 66 | 0 | 0.0 | 0.0 | 0.00 | 0.00 | 0.00 | 58 | 1014.5 |
| 20260505020017 | 67 | 0 | 0.0 | 0.0 | 0.00 | 0.00 | 0.00 | 57 | 1014.3 |
| 20260505015517 | 67 | 0 | 0.0 | 0.0 | 0.00 | 0.00 | 0.00 | 56 | 1014.4 |
| 20260505015017 | 68 | 0 | 0.0 | 0.0 | 0.00 | 0.00 | 0.00 | 55 | 1014.3 |
| 20260505014517 | 68 | 0 | 0.0 | 0.0 | 0.00 | 0.00 | 0.00 | 54 | 1014.3 |
| 20260505014017 | 69 | 0 | 0.0 | 0.0 | 0.00 | 0.00 | 0.00 | 52 | 1014.2 |
| 20260505013517 | 69 | 0 | 0.0 | 0.0 | 0.00 | 0.00 | 0.00 | 52 | 1014.2 |
| 20260505013018 | 69 | 0 | 0.0 | 0.0 | 0.00 | 0.00 | 0.00 | 51 | 1014.2 |
| 20260505012517 | 70 | 0 | 0.0 | 0.0 | 0.00 | 0.00 | 0.00 | 50 | 1014.2 |
| 20260505012018 | 70 | 0 | 0.0 | 0.0 | 0.00 | 0.00 | 0.00 | 50 | 1014.1 |
| 20260505011517 | 71 | 0 | 0.0 | 0.0 | 0.00 | 0.00 | 0.00 | 49 | 1014.1 |
| 20260505011017 | 72 | 0 | 0.0 | 0.0 | 0.00 | 0.00 | 0.00 | 48 | 1014.0 |
| 20260505010518 | 72 | 0 | 0.0 | 0.0 | 0.00 | 0.00 | 0.00 | 47 | 1014.0 |
| 20260505010018 | 72 | 257 | 0.0 | 1.7 | 0.00 | 0.00 | 0.00 | 46 | 1013.9 |
| 20260505005517 | 73 | 198 | 0.0 | 1.7 | 0.00 | 0.00 | 0.00 | 46 | 1013.9 |
| 20260505005017 | 73 | 186 | 0.9 | 5.2 | 0.00 | 0.00 | 0.00 | 44 | 1013.9 |
| 20260505004517 | 73 | 202 | 2.6 | 4.3 | 0.00 | 0.00 | 0.00 | 45 | 1013.9 |
| 20260505004017 | 73 | 213 | 0.0 | 2.6 | 0.00 | 0.00 | 0.00 | 43 | 1013.9 |
| 20260505003517 | 74 | 0 | 0.0 | 0.0 | 0.00 | 0.00 | 0.00 | 43 | 1013.8 |
| 20260505003017 | 74 | 0 | 0.0 | 0.0 | 0.00 | 0.00 | 0.00 | 43 | 1013.8 |
| 20260505002517 | 74 | 0 | 0.0 | 0.0 | 0.00 | 0.00 | 0.00 | 42 | 1013.8 |
| 20260505002017 | 75 | 236 | 0.0 | 2.6 | 0.00 | 0.00 | 0.00 | 42 | 1013.7 |
| 20260505001517 | 75 | 199 | 2.6 | 3.5 | 0.00 | 0.00 | 0.00 | 41 | 1013.6 |
| 20260505001017 | 75 | 215 | 0.0 | 1.7 | 0.00 | 0.00 | 0.00 | 41 | 1013.6 |
| 20260505000517 | 75 | 192 | 0.0 | 3.5 | 0.00 | 0.00 | 0.00 | 41 | 1013.7 |
| 20260505000017 | 76 | 264 | 0.0 | 4.3 | 0.00 | 0.00 | 0.00 | 40 | 1013.7 |
| 20260504235517 | 76 | 196 | 0.0 | 1.7 | 0.00 | 0.00 | 0.00 | 40 | 1013.6 |
| 20260504235017 | 76 | 248 | 0.0 | 2.6 | 0.00 | 0.00 | 0.00 | 40 | 1013.7 |
| 20260504234516 | 76 | 270 | 0.0 | 4.3 | 0.00 | 0.00 | 0.00 | 40 | 1013.7 |
| 20260504234017 | 76 | 182 | 0.0 | 5.2 | 0.00 | 0.00 | 0.00 | 39 | 1013.7 |
| 20260504233517 | 77 | 202 | 0.0 | 4.3 | 0.00 | 0.00 | 0.00 | 39 | 1013.8 |
| 20260504233017 | 77 | 208 | 0.0 | 6.1 | 0.00 | 0.00 | 0.00 | 39 | 1013.8 |
| 20260504232517 | 77 | 0 | 0.0 | 0.0 | 0.00 | 0.00 | 0.00 | 39 | 1013.9 |
| 20260504232017 | 77 | 0 | 0.0 | 0.0 | 0.00 | 0.00 | 0.00 | 37 | 1013.9 |
| 20260504231518 | 77 | 0 | 0.0 | 0.0 | 0.00 | 0.00 | 0.00 | 37 | 1013.8 |
| 20260504231017 | 77 | 217 | 0.0 | 0.9 | 0.00 | 0.00 | 0.00 | 38 | 1013.9 |
| 20260504230517 | 77 | 192 | 0.0 | 5.2 | 0.00 | 0.00 | 0.00 | 38 | 1013.9 |
| 20260504230017 | 77 | 199 | 0.0 | 4.3 | 0.00 | 0.00 | 0.00 | 39 | 1014.0 |
| 20260504225517 | 78 | 309 | 0.0 | 6.1 | 0.00 | 0.00 | 0.00 | 36 | 1014.0 |
| 20260504225017 | 78 | 192 | 2.6 | 6.1 | 0.00 | 0.00 | 0.00 | 36 | 1014.0 |
| 20260504224517 | 78 | 198 | 0.0 | 5.2 | 0.00 | 0.00 | 0.00 | 36 | 1014.0 |
| 20260504224017 | 79 | 237 | 0.9 | 2.6 | 0.00 | 0.00 | 0.00 | 35 | 1014.0 |
| 20260504223517 | 79 | 196 | 0.0 | 7.0 | 0.00 | 0.00 | 0.00 | 35 | 1014.1 |
| 20260504223017 | 79 | 206 | 0.0 | 2.6 | 0.00 | 0.00 | 0.00 | 34 | 1014.1 |
| 20260504222517 | 79 | 220 | 0.0 | 4.3 | 0.00 | 0.00 | 0.00 | 34 | 1014.2 |
| 20260504222017 | 79 | 193 | 2.6 | 5.2 | 0.00 | 0.00 | 0.00 | 35 | 1014.2 |
| 20260504221517 | 79 | 210 | 3.5 | 4.3 | 0.00 | 0.00 | 0.00 | 36 | 1014.2 |
| 20260504221018 | 79 | 226 | 0.0 | 1.7 | 0.00 | 0.00 | 0.00 | 36 | 1014.2 |
| 20260504220517 | 80 | 199 | 0.9 | 1.7 | 0.00 | 0.00 | 0.00 | 35 | 1014.2 |
| 20260504220017 | 80 | 193 | 0.0 | 4.3 | 0.00 | 0.00 | 0.00 | 37 | 1014.2 |
| 20260504215517 | 80 | 176 | 1.7 | 4.3 | 0.00 | 0.00 | 0.00 | 36 | 1014.2 |
| 20260504215018 | 80 | 206 | 0.0 | 2.6 | 0.00 | 0.00 | 0.00 | 34 | 1014.3 |
| 20260504214517 | 80 | 0 | 0.0 | 0.0 | 0.00 | 0.00 | 0.00 | 38 | 1014.4 |
| 20260504214017 | 79 | 0 | 0.0 | 0.0 | 0.00 | 0.00 | 0.00 | 37 | 1014.4 |
| 20260504213517 | 79 | 205 | 0.0 | 6.1 | 0.00 | 0.00 | 0.00 | 36 | 1014.4 |
| 20260504213017 | 79 | 200 | 0.0 | 3.5 | 0.00 | 0.00 | 0.00 | 36 | 1014.5 |
| 20260504212517 | 79 | 189 | 0.0 | 3.5 | 0.00 | 0.00 | 0.00 | 36 | 1014.5 |
| 20260504212017 | 79 | 192 | 0.0 | 7.0 | 0.00 | 0.00 | 0.00 | 36 | 1014.6 |
| 20260504211517 | 79 | 182 | 4.3 | 6.1 | 0.00 | 0.00 | 0.00 | 35 | 1014.6 |
| 20260504211017 | 79 | 195 | 4.3 | 8.7 | 0.00 | 0.00 | 0.00 | 34 | 1014.5 |
| 20260504210517 | 80 | 261 | 1.7 | 3.5 | 0.00 | 0.00 | 0.00 | 33 | 1014.6 |
| 20260504210017 | 80 | 237 | 0.0 | 3.5 | 0.00 | 0.00 | 0.00 | 34 | 1014.5 |
| 20260504205517 | 80 | 234 | 0.0 | 5.2 | 0.00 | 0.00 | 0.00 | 37 | 1014.7 |
| 20260504205017 | 80 | 178 | 2.6 | 1.7 | 0.00 | 0.00 | 0.00 | 38 | 1014.7 |
| 20260504204518 | 79 | 233 | 0.0 | 7.0 | 0.00 | 0.00 | 0.00 | 36 | 1014.7 |
| 20260504204017 | 80 | 263 | 4.3 | 6.1 | 0.00 | 0.00 | 0.00 | 34 | 1014.7 |
| 20260504203518 | 80 | 318 | 0.9 | 6.1 | 0.00 | 0.00 | 0.00 | 36 | 1014.7 |
| 20260504203017 | 80 | 195 | 0.0 | 7.8 | 0.00 | 0.00 | 0.00 | 34 | 1014.8 |
| 20260504202517 | 80 | 234 | 0.0 | 4.3 | 0.00 | 0.00 | 0.00 | 36 | 1014.8 |
| 20260504202018 | 80 | 167 | 0.0 | 3.5 | 0.00 | 0.00 | 0.00 | 35 | 1014.8 |
| 20260504201517 | 79 | 313 | 0.0 | 9.6 | 0.00 | 0.00 | 0.00 | 38 | 1014.8 |
| 20260504201017 | 79 | 198 | 0.0 | 4.3 | 0.00 | 0.00 | 0.00 | 36 | 1014.9 |
| 20260504200517 | 79 | 257 | 3.5 | 2.6 | 0.00 | 0.00 | 0.00 | 38 | 1015.0 |
| 20260504200017 | 78 | 0 | 0.0 | 0.0 | 0.00 | 0.00 | 0.00 | 39 | 1015.1 |
| 20260504195517 | 78 | 229 | 0.0 | 5.2 | 0.00 | 0.00 | 0.00 | 39 | 1015.2 |
| 20260504195017 | 78 | 83 | 1.7 | 3.5 | 0.00 | 0.00 | 0.00 | 36 | 1015.2 |
| 20260504194518 | 78 | 248 | 0.0 | 2.6 | 0.00 | 0.00 | 0.00 | 40 | 1015.3 |
| 20260504194017 | 78 | 256 | 0.0 | 3.5 | 0.00 | 0.00 | 0.00 | 39 | 1015.3 |
| 20260504193517 | 77 | 184 | 2.6 | 4.3 | 0.00 | 0.00 | 0.00 | 39 | 1015.4 |
| 20260504193017 | 77 | 247 | 0.0 | 2.6 | 0.00 | 0.00 | 0.00 | 40 | 1015.5 |
| 20260504192517 | 77 | 244 | 0.0 | 3.5 | 0.00 | 0.00 | 0.00 | 40 | 1015.5 |
| 20260504192017 | 77 | 258 | 0.0 | 5.2 | 0.00 | 0.00 | 0.00 | 39 | 1015.7 |
| 20260504191518 | 77 | 51 | 0.9 | 4.3 | 0.00 | 0.00 | 0.00 | 41 | 1015.7 |
| 20260504191017 | 77 | 48 | 2.6 | 4.3 | 0.00 | 0.00 | 0.00 | 43 | 1015.7 |
| 20260504190517 | 77 | 0 | 0.0 | 0.0 | 0.00 | 0.00 | 0.00 | 43 | 1015.8 |
| 20260504190017 | 77 | 78 | 0.0 | 2.6 | 0.00 | 0.00 | 0.00 | 43 | 1015.8 |
| 20260504185517 | 76 | 85 | 1.7 | 2.6 | 0.00 | 0.00 | 0.00 | 40 | 1015.9 |
| 20260504185017 | 77 | 0 | 0.0 | 0.0 | 0.00 | 0.00 | 0.00 | 41 | 1016.0 |
| 20260504184517 | 76 | 213 | 0.0 | 5.2 | 0.00 | 0.00 | 0.00 | 40 | 1016.2 |
| 20260504184017 | 77 | 196 | 0.0 | 4.3 | 0.00 | 0.00 | 0.00 | 39 | 1016.2 |
| 20260504183517 | 77 | 179 | 3.5 | 7.8 | 0.00 | 0.00 | 0.00 | 39 | 1016.2 |
| 20260504183017 | 77 | 215 | 0.0 | 1.7 | 0.00 | 0.00 | 0.00 | 41 | 1016.3 |
| 20260504182517 | 76 | 186 | 0.0 | 2.6 | 0.00 | 0.00 | 0.00 | 41 | 1016.4 |
| 20260504182017 | 76 | 83 | 0.9 | 6.1 | 0.00 | 0.00 | 0.00 | 42 | 1016.5 |
| 20260504181517 | 76 | 244 | 1.7 | 5.2 | 0.00 | 0.00 | 0.00 | 42 | 1016.6 |
| 20260504181017 | 76 | 247 | 0.0 | 4.3 | 0.00 | 0.00 | 0.00 | 42 | 1016.5 |
| 20260504180517 | 76 | 17 | 3.5 | 2.6 | 0.00 | 0.00 | 0.00 | 44 | 1016.5 |
| 20260504180017 | 76 | 172 | 0.0 | 5.2 | 0.00 | 0.00 | 0.00 | 42 | 1016.8 |
| 20260504175517 | 76 | 191 | 4.3 | 5.2 | 0.00 | 0.00 | 0.00 | 41 | 1016.9 |
| 20260504175017 | 77 | 257 | 0.0 | 2.6 | 0.00 | 0.00 | 0.00 | 46 | 1016.9 |
| 20260504174517 | 77 | 206 | 0.0 | 4.3 | 0.00 | 0.00 | 0.00 | 43 | 1016.9 |
| 20260504174017 | 77 | 164 | 0.0 | 3.5 | 0.00 | 0.00 | 0.00 | 43 | 1016.9 |
| 20260504173517 | 76 | 157 | 3.5 | 3.5 | 0.00 | 0.00 | 0.00 | 43 | 1017.0 |
| 20260504173017 | 76 | 222 | 1.7 | 4.3 | 0.00 | 0.00 | 0.00 | 43 | 1017.1 |
| 20260504172517 | 76 | 134 | 0.0 | 3.5 | 0.00 | 0.00 | 0.00 | 44 | 1017.1 |
| 20260504172018 | 75 | 134 | 1.7 | 6.1 | 0.00 | 0.00 | 0.00 | 44 | 1017.2 |
| 20260504171517 | 75 | 0 | 0.0 | 0.0 | 0.00 | 0.00 | 0.00 | 45 | 1017.3 |
| 20260504171017 | 74 | 189 | 0.0 | 2.6 | 0.00 | 0.00 | 0.00 | 45 | 1017.5 |
| 20260504170518 | 74 | 240 | 0.0 | 2.6 | 0.00 | 0.00 | 0.00 | 45 | 1017.6 |
| 20260504151017 | 68 | 232 | 0.0 | 2.6 | 0.00 | 0.00 | 0.00 | 57 | 1018.5 |
| 20260504150518 | 67 | 237 | 1.7 | 2.6 | 0.00 | 0.00 | 0.00 | 57 | 1018.5 |
| 20260504141017 | 63 | 179 | 0.9 | 5.2 | 0.00 | 0.00 | 0.00 | 64 | 1019.0 |
| 20260504140517 | 62 | 199 | 0.0 | 2.6 | 0.00 | 0.00 | 0.00 | 64 | 1019.1 |
| 20260504130517 | 55 | 0 | 0.0 | 0.0 | 0.00 | 0.00 | 0.00 | 88 | 1019.2 |
| 20260504110517 | 50 | 0 | 0.0 | 0.0 | 0.00 | 0.00 | 0.00 | 91 | 1018.4 |